Miscellaneous Local Product
Issued by NWS Hastings, NE

Home | Current Version | Previous Version | Text Only | Print | Product List | Glossary Off
Versions: 1 2 3 4 5 6 7 8 9 10 11 12 13 14 15 16 17 18 19 20 21 22 23 24 25 26 27 28 29 30 31 32 33 34 35 36 37 38 39 40 41 42 43 44 45 46 47 48 49 50

000
AXUS43 KGID 020102
MISGRI

GID CWA HOURLY WEATHER ROUNDUP
NATIONAL WEATHER SERVICE HASTINGS NE
800 PM CDT MON JUN 01 2015

NOTE: "FAIR" INDICATES FEW OR NO CLOUDS BELOW 12,000 FEET WITH NO
SIGNIFICANT WEATHER AND/OR OBSTRUCTIONS TO VISIBILITY.

...SOUTH CENTRAL NEBRASKA...

CITY           SKY/WX    TMP DP  RH WIND       PRES   REMARKS
GRAND ISLAND   CLOUDY    72  57  59 S14G22    30.02F
HASTINGS       CLOUDY    72  58  61 S12G20    30.03S
KEARNEY        CLEAR     70  57  64 SE18      30.02S
ORD            CLEAR     71  56  58 S15G25    29.99S
YORK           CLEAR     75  54  46 S13G20    30.04R
AURORA         PTCLDY    73  55  53 S13G18    30.03S
LEXINGTON      SUNNY     72  62  70 SE14G24   29.99F
HOLDREGE       PTCLDY    71  59  65 SE16G24   30.01S
HEBRON         PTCLDY    73  54  49 SE12      30.04S

...NEBRASKA PANHANDLE...

CITY           SKY/WX    TMP DP  RH WIND       PRES   REMARKS
CHADRON        CLOUDY    75  53  46 S6        29.83F
ALLIANCE       TSTM      62  57  83 SE10      29.96S
SCOTTSBLUFF    CLOUDY    71  59  65 E7        29.91R
SIDNEY         TSTM      57  54  89 W22G44    30.05R VSB 3/4

...WESTERN AND NORTH CENTRAL NEBRASKA...

CITY           SKY/WX    TMP DP  RH WIND       PRES   REMARKS
VALENTINE      SUNNY     77  59  53 S20G26    29.91S
AINSWORTH      SUNNY     73  60  62 S15G22    29.95S
ONEILL         CLEAR     76  58  54 S15G24    29.98S
BROKEN BOW     MOSUNNY   72  60  66 S17       29.99F
IMPERIAL       SUNNY     77  60  55 SE17G25   29.93F
NORTH PLATTE   SUNNY     72  62  71 SE13G20   29.96F
MCCOOK         SUNNY     79  62  56 SE15G25   29.96S

...EASTERN NEBRASKA...

CITY           SKY/WX    TMP DP  RH WIND       PRES   REMARKS
NORFOLK        CLEAR     74  53  48 SE16      30.02S
SO SIOUX CITY  CLEAR     74  50  42 S14       30.04S
TEKAMAH        CLEAR     74  51  44 SE12      30.05S
COLUMBUS       CLEAR     73  52  46 SE10      30.05R
ALBION         PTCLDY    76  51  42 S16       30.01S
OMAHA EPPLEY   PTCLDY    71  51  49 SE12      30.06F
OFFUTT AFB     CLEAR     71  53  53 SE9       30.06S
MILLARD        CLEAR     72  55  53 SE10      30.06S
LINCOLN        CLEAR     72  53  51 S13       30.06S
NEBRASKA CITY  CLEAR     69  47  45 SE12      30.08S
BEATRICE       CLEAR     71  54  55 S12       30.06S
FALLS CITY     CLEAR     67  54  63 SE12      30.08S

...NORTHERN KANSAS...

CITY           SKY/WX    TMP DP  RH WIND       PRES   REMARKS
GOODLAND       MOSUNNY   77  62  59 SE14      29.97F
HILL CITY      CLEAR     77  63  61 SE15G23   29.99R
NORTON         CLEAR     73  57  56 E13G22    29.98F
PHILLIPSBURG   PTCLDY    75  63  64 E14G21    30.01R
SMITH CENTER   PTCLDY    68  59  73 SE14      30.02S
HAYS           CLEAR     75  61  60 SE15      30.01R
RUSSELL        PTCLDY    73  61  65 SE20      30.00S
CONCORDIA      CLEAR     70  56  61 SE14      30.04S
SALINA         CLOUDY    74  59  59 SE9       30.04S
TOPEKA         CLEAR     65  54  67 SE13      30.10S



USA.gov is the U.S. government's official web portal to all federal, state and local government web resources and services.